Location: Ambrosina
(19.9365°S, 43.9833°W)
Time: 01:50:04
(UTC+00:00)

SJ-11-01 - Pass Details

Date: 11 May 2021
Orbit: 684 x 701 km, 98.0° (Epoch: 18 June)

Event Time Altitude Azimuth Distance (km) Brightness Sun altitude
Exits shadow 22:07:31 56° 56° (NE) 834 4.4 -23.2°
Drops below altitude 10° 22:11:46 10° 0° (N) 2,152 6.9 -24.2°
Sets 22:14:01 0° 356° (N) 3,060 7.8 -24.7°
